DW0487 Weather Reports


Display with metric or nautical units.
time (UTC)temp
F
wind
direction
speed
MPH
gust
MPH
rain 1hr
in
rain 24hr
in
rain mn
in
humidity
%
barometer
mb
20260505164501 64 194 5.0 12.0 0.00 0.00 0.00 45 1004.1
20260505163051 65 130 6.0 13.0 0.00 0.00 0.00 43 1004.2
20260505161601 66 240 7.0 15.0 0.00 0.00 0.00 44 1004.1
20260505153059 68 162 6.0 12.0 0.00 0.00 0.00 40 1004.3
20260505151558 68 192 4.0 11.0 0.00 0.00 0.00 40 1004.4
20260505124541 65 182 4.0 13.0 0.00 0.00 0.00 42 1004.9
20260505123040 65 248 7.0 16.0 0.00 0.00 0.00 40 1004.8
20260505121543 65 221 7.0 16.0 0.00 0.00 0.00 41 1004.7
20260505120043 65 255 6.0 12.0 0.00 0.00 0.00 42 1004.6
20260505114540 66 201 6.0 12.0 0.00 0.00 0.00 42 1004.7
20260505113041 66 227 6.0 15.0 0.00 0.00 0.00 42 1004.7
20260505111541 67 241 10.0 20.0 0.00 0.00 0.00 38 1004.7
20260505101539 69 235 1.0 8.0 0.00 0.00 0.00 35 1004.8
20260505100035 70 204 5.0 13.0 0.00 0.00 0.00 33 1004.8
20260505094536 71 204 5.0 11.0 0.00 0.00 0.00 33 1005.0
20260505093039 69 185 2.0 6.0 0.00 0.00 0.00 34 1005.1
20260505091529 68 252 4.0 7.0 0.00 0.00 0.00 36 1005.1
20260505090023 67 325 0.0 6.0 0.00 0.00 0.00 37 1005.2
20260505084520 66 250 3.0 8.0 0.00 0.00 0.00 40 1005.6
20260505083016 65 163 5.0 13.0 0.00 0.00 0.00 41 1005.9
20260505081516 64 205 7.0 16.0 0.00 0.00 0.00 39 1006.1
20260505080010 63 217 6.0 9.0 0.00 0.00 0.00 43 1006.4
20260505074509 63 194 4.0 14.0 0.00 0.00 0.00 44 1006.5
20260505073008 63 138 7.0 13.0 0.00 0.00 0.00 44 1006.6
20260505071503 61 176 5.0 15.0 0.00 0.00 0.00 49 1006.8
20260505070100 55 157 6.0 10.0 0.00 0.00 0.00 60 1007.1
20260505064559 51 51 2.0 4.0 0.00 0.00 0.00 80 1007.1
20260505063054 48 45 0.0 2.0 0.00 0.00 0.00 83 1007.5
20260505061554 47 57 0.0 0.0 0.00 0.00 0.00 86 1007.7
20260505060052 46 12 0.0 4.0 0.00 0.00 0.00 87 1007.6
20260505054552 44 70 0.0 3.0 0.00 0.00 0.00 89 1007.6
20260505053057 43 13 1.0 3.0 0.00 0.00 0.00 90 1007.5
20260505051545 41 97 0.0 3.0 0.00 0.00 0.00 89 1007.7
20260505041533 40 209 0.0 4.0 0.00 0.00 0.00 86 1008.0
20260505040031 40 61 0.0 0.0 0.00 0.00 0.00 86 1008.0
20260505034530 41 188 0.0 0.0 0.00 0.00 0.00 86 1007.9
20260505033039 41 192 0.0 0.0 0.00 0.00 0.00 85 1008.1
20260505031526 41 119 0.0 3.0 0.00 0.00 0.00 85 1008.1
20260505030027 42 277 0.0 3.0 0.00 0.00 0.00 84 1008.4
20260505024522 42 80 2.0 4.0 0.00 0.00 0.00 84 1008.4
20260505023021 42 184 0.0 3.0 0.00 0.00 0.00 83 1008.6
20260505021517 43 307 0.0 2.0 0.00 0.00 0.00 83 1008.6
20260505020016 43 243 0.0 2.0 0.00 0.00 0.00 82 1008.6
20260505014516 44 17 0.0 0.0 0.00 0.00 0.00 81 1008.8
20260505013011 44 100 1.0 3.0 0.00 0.00 0.00 81 1008.8
20260505011508 45 232 2.0 5.0 0.00 0.00 0.00 79 1008.9
20260505010005 46 248 0.0 2.0 0.00 0.00 0.00 77 1009.1
20260505004507 47 293 0.0 3.0 0.00 0.00 0.00 76 1009.2
20260505003103 47 99 0.0 1.0 0.00 0.00 0.00 75 1009.3
20260505001557 48 17 0.0 0.0 0.00 0.00 0.00 74 1009.4
20260505000100 49 163 0.0 3.0 0.00 0.00 0.00 73 1009.4
20260504234615 50 173 1.0 3.0 0.00 0.00 0.00 72 1009.4
20260504233051 51 192 0.0 3.0 0.00 0.00 0.00 70 1009.7
20260504231553 51 215 0.0 3.0 0.00 0.00 0.00 69 1009.8
20260504230043 52 200 0.0 2.0 0.00 0.00 0.00 67 1009.8
20260504224540 53 155 1.0 3.0 0.00 0.00 0.00 67 1009.8
20260504223038 54 281 0.0 3.0 0.00 0.00 0.00 63 1009.8
20260504221533 56 155 0.0 0.0 0.00 0.00 0.00 64 1009.9
20260504220030 56 144 0.0 3.0 0.00 0.00 0.00 64 1010.0
20260504214537 57 287 2.0 5.0 0.00 0.00 0.00 66 1009.9
20260504213031 57 26 5.0 8.0 0.00 0.00 0.00 66 1009.9
20260504211528 57 9 4.0 8.0 0.00 0.00 0.00 65 1010.2
20260504210028 57 43 4.0 6.0 0.00 0.00 0.00 62 1010.4
20260504204559 57 207 0.0 2.0 0.00 0.00 0.00 57 1010.5
20260504203030 58 294 0.0 3.0 0.00 0.00 0.00 56 1010.4
20260504201526 59 23 2.0 3.0 0.00 0.00 0.00 52 1010.3
20260504200033 60 81 0.0 4.0 0.00 0.00 0.00 49 1010.2
20260504194527 61 19 1.0 4.0 0.00 0.00 0.00 52 1010.3
20260504193026 62 41 0.0 3.0 0.00 0.00 0.00 49 1010.1
20260504191525 64 205 0.0 1.0 0.00 0.00 0.00 44 1010.0
20260504190025 65 224 1.0 4.0 0.00 0.00 0.00 47 1009.8
20260504184525 65 213 2.0 6.0 0.00 0.00 0.00 39 1009.7
20260504183028 66 231 4.0 9.0 0.00 0.00 0.00 39 1009.5
20260504181523 67 213 5.0 10.0 0.00 0.00 0.00 35 1009.5
20260504180024 67 211 5.0 10.0 0.00 0.00 0.00 34 1009.3
20260504174523 68 199 3.0 10.0 0.00 0.00 0.00 33 1009.3
20260504173022 68 227 5.0 10.0 0.00 0.00 0.00 33 1009.3
20260504171536 68 196 5.0 9.0 0.00 0.00 0.00 32 1009.2